Location: Calgary
(51.0833°N, 114.0833°W)
Time: 07:25:55
(UTC-06:00)

N. Korean satellite - Visible Passes

Search period start: 21 September 2018 00:00
Search period end: 01 October 2018 00:00
Orbit: 458 x 511 km, 97.2° (Epoch: 20 September)

Date Brightness Start Highest point End Pass type
(mag) Time Alt. Az. Time Alt. Az. Time Alt. Az.
21 Sep 9.8 20:09:08 10° SW 20:11:29 17° W 20:13:52 10° NW visible
24 Sep 10.6 20:31:30 10° W 20:32:08 10° W 20:32:46 10° WNW visible
25 Sep 9.8 20:04:57 10° SW 20:07:31 19° W 20:10:07 10° NW visible
28 Sep 10.3 20:26:49 10° WSW 20:28:08 12° W 20:29:27 10° WNW visible
29 Sep 9.8 20:00:46 10° SW 20:03:31 20° W 20:06:19 10° NW visible
